sat.trackr.live / text

‹ back to catalog

APSTAR-6E

NORAD 55239 · 2023-005A

PAYLOAD ACTIVE UNKNOWN

§ Identity

Operator
Country
PRC
Launch date
2023-01-12
Launch site
XICLF
Launch vehicle
Mass (kg)
RCS (m²)

Purposes: comms

External: N2YO · Heavens-Above · Gunter

§ Orbital elements

Epoch: 2026-09-18T14:01:38.879328Z

Period
1,436.11 min
Inclination
0.0365°
Eccentricity
0.0003855
Mean motion
1.00270633 rev/d
Perigee alt
35,770.7 km
Apogee alt
35,803.2 km
Semi-major
42,165.1 km
B*
0.0000e+0
RAAN
241.2000°
Arg perigee
326.5210°
Mean anomaly
134.2156°
Rev number
1,963

§ Raw data

APSTAR-6E1 55239U 23005A   26261.58447777 -.00000322  00000+0  00000+0 0  99962 55239   0.0365 241.2000 0003855 326.5210 134.2156  1.00270633 19632

JSON: /api/v1/satellites/55239 · /tle

For live sub-satellite position, see the globe view (requires WebGL).

§ Visibility from observer

Set your observer location to see the next 7 days of passes ≥ 10°. The values pass through the URL so the page stays shareable.

No JS? Fill the form by hand. The geolocation button needs JavaScript.